NOAA 16 DEB, 41285

Orbit data source: Space-Track

NOAA 16 DEB, 41285 is space debris in SSO originally from a launch on Thu, 21 Sep 2000 UTC launched from the Air Force Western Test Range (AFWTR). Debris objects in space refer to the collection of defunct objects orbiting the Earth. Examples of debris include non-operational satellites, rocket bodies, and fragments generated from explosions, collisions, or faulty payload assembly.

Loading next visibility...
Identifier
41285, 2000-055GM
Orbit
SSO
Country
Flag of USUS
Related business
Manufacturer
Unknown
Mission
Spacecraft
Bus & Motor
Unknown
Mass
Unknown
Launch date (UTC)
2000-09-21 (26 years ago)
Launch vehicle
Unknown
Launch site
Air Force Western Test Range (AFWTR)
Object type
Payload
Rocket body
Debris
Shape & HBR
Unknown shape, 0.1 m
Radar Cross Section
Medium (>0.1 m² and <1 m²)

Expand to show TLE details & history
Last TLE update: 11 hours ago

TLE from 11 hours ago
0 NOAA 16 DEB
1 41285U 00055GM  26193.97893223  .00001657  00000-0  68729-3 0  9998
2 41285  98.6610 260.6344 0046877 292.7411  66.8819 14.27279613545166
Epoch: 2026-07-12T23:29Z
TLE epoch observation values (Epoch: 2026-07-12T23:29:39.744Z)
Latitude
-0.00006°
Longitude
-22.65123°
Altitude
790.683 km
Speed
7.465 km/s
True Right ascension
17h 22m 32s
True Declination
0° 00' 00"
Sunlit
Object was in full shadow at epoch
Visualization orbit readout
Latitude
Unknown
Longitude
Unknown
Altitude
Unknown
Speed
Unknown
Apparent Right ascension
Unknown
Apparent Declination
Unknown
Sunlit
N/A
Visualization observer readout
Local Sidereal Time
22:25:14
Azimuth
Unknown
Elevation
Unknown
Doppler factor
Unknown
Orbital elements
Apogee altitude
831.624 km
Perigee altitude
764.345 km
Semi-major axis
7,176.122 km
Eccentricity
0.00469
Inclination
98.661°
RAAN
260.6344°
Arg. of periapsis
292.7411°
True anomaly
67.37707°
Mean anomaly
66.8819°
Eccentric anomaly
67.12937°
Mean motion
3.57033 °/min
Orbital period
100.83 mins
BSTAR
0.00068729
Loading maneuver chart data...
Computing Atmospheric mass density...
Loading historical data...
Loading historical data...
Loading historical data...
Loading historical data...
Loading historical data...
Loading historical data...
Loading historical data...

Documentation

Showing up to 5 results
|